Regional Weather Roundup
Issued by NWS New Orleans/Baton Rouge, LA

Home | Current Version | Previous Version | Graphics & Text | Print | Product List | Glossary On
Versions: 1 2 3 4 5 6 7 8 9 10 11 12 13 14 15 16 17 18 19 20 21 22 23 24 25 26 27 28 29 30 31 32 33 34 35 36 37 38 39 40 41 42 43 44 45 46 47 48 49 50
897
ASUS44 KLIX 200101
RWRLIX
NEW ORLEANS REGIONAL WEATHER ROUNDUP
NATIONAL WEATHER SERVICE NEW ORLEANS LA
800 PM CDT SUN OCT 19 2014

NOTE: "FAIR" INDICATES FEW OR NO CLOUDS BELOW 12,000 FEET WITH NO
      SIGNIFICANT WEATHER AND/OR OBSTRUCTIONS TO VISIBILITY.
      SKY/WX - SKY CONDITION AND SIGNIFICANT WEATHER.
      TMP - AIR TEMPERATURE.     DP    - DEWPOINT TEMPERATURE.
      RH  - RELATIVE HUMIDITY.   PRES  - PRESSURE.
      HI  - HEAT INDEX.          WCI   - WIND CHILL INDEX.

*  THESE STATIONS ARE NOT NWS OR FAA STATIONS AND ARE NOT UNDER
   NWS QUALITY CONTROL.

LAZ038-040-048-061>063-065>067-069-200200-
SOUTHEAST LOUISIANA

CITY           SKY/WX    TMP DP  RH WIND       PRES   REMARKS
N.O. AUDUBON     N/A     70  58  67 MISG        N/A
N.O. INTL ARPT PTCLDY    70  56  61 E5        30.06R
N.O. LAKEFRONT CLEAR     69  57  65 SE6       30.07R
N.O. DOWNTOWN*   N/A     70  54  56 E3        30.07R
SLIDELL        CLEAR     61  56  83 CALM      30.06S
BATON ROUGE    CLEAR     63  57  81 CALM      30.06S
BOOTHVILLE     CLEAR     71  64  78 NE8       30.05S
BELLE CHASSE   CLEAR     63  57  81 NE3       30.06R
BOGALUSA*        N/A     59  53  79 CALM      30.09R
NEW ROADS*       N/A     64  58  82 N3        30.07S
GONZALES*        N/A     62  62 100 CALM      30.06S
HAMMOND*       NOT AVBL
HOUMA*         CLEAR     66  61  84 NE5       30.05S
PORT FOURCHON* PTCLDY    72  64  78 NE12      30.08R

$$

MSZ070-080>082-200200-
SOUTHERN MISSISSIPPI

CITY           SKY/WX    TMP DP  RH WIND       PRES   REMARKS
MCCOMB         CLEAR     59  51  75 CALM      30.08R
GULFPORT       CLEAR     62  56  80 CALM      30.06R
BILOXI         CLEAR     67  53  61 CALM      30.06S
PASCAGOULA     CLEAR     56  53  90 CALM      30.06S
STENNIS ARPT*  CLEAR     61  55  82 CALM      30.07R

$$

COASTAL OBSERVATIONS
LAKE AND NEARSHORE STATIONS

STATION/POSITION TIME  TEMP    WIND        PRES    WAVE
                       AIR SEA DIR/SP/G            HT/PER
                 (UTC) (F)     (DEG/KT/KT) (MB)    (FT/S)
PASCAGOULA       0000   65     230/  2/  3 1017.5
WAVELAND YACHT   0000   69     230/  1/  2 1017.1
GRAND ISLE       0000   71 78   60/  9/ 13 1017.8
SOUTHWEST PASS   0000   76 85              1017.5
NEW CANAL        0000   69 73   80/  2/  4 1018.2
SHELL BEACH      0000   69 70  110/  6/  7 1017.7

OFFSHORE STATIONS

STATION/POSITION TIME  TEMP    WIND        PRES    WAVE
                       AIR SEA DIR/SP/G            HT/PER
                 (UTC) (F)     (DEG/KT/KT) (MB)    (FT/S)
64 S DAUPHIN ISL 0026   72 80   60/ 10/ 12 1018.1    3/ 6

$$




USA.gov is the U.S. government's official web portal to all federal, state and local government web resources and services.